Date String (YYYY-MM-DD hh:mm:ss) UTC,Instrument flags,absolute air pressure of the measurement (hPa),sample flow rate (lpm),inlet stack bypass flow (lpm),air temperature of the measurement (°C),ambient temperature measured by the external sensor (°C),aerosol sample conditioner tube jacket temperature (°C),OPC LED temperature (°C),internal box temperature (°C),relative humidity of the measurement (%),span deviation,mass concentration of particles derived from Lorenz-Mie calculation of OPC scattering (μg/m³),mass concentration of particles derived from Lorenz-Mie calculation of OPC scattering (μg/m³),mass concentration of particles derived from Lorenz-Mie calculation of OPC scattering (μg/m³)
DateTimeUTC,F1_M11,P_M11,Q1_M11,Q2_M11,T1_M11,T2_M11,T3_M11,T4_M11,T5_M11,U1_M11,ZSPAN_M11,X2_M11,X0_M11,X1_M11
2023-06-01 19:00:00,SystemResetWarning,0826.2,5.01,000.00,029.8,028.2,000.0,038.2,031.4,29.2,0001.5,0007.24,0014.31,0006.22
2023-06-01 19:01:00,SystemResetWarning,0826.2,5.00,000.00,029.8,028.3,000.0,038.2,031.4,28.9,0001.3,0007.22,0014.55,0006.17
2023-06-01 19:02:00,SystemResetWarning,0826.2,5.00,000.00,029.8,028.3,000.0,038.2,031.4,28.6,0001.6,0007.25,0014.90,0006.17
2023-06-01 19:03:00,SystemResetWarning,0826.2,4.99,000.00,029.8,028.3,000.0,038.2,031.5,28.9,0001.6,0007.30,0015.26,0006.21
2023-06-01 19:04:00,SystemResetWarning,0826.2,4.99,000.00,029.9,028.4,000.0,038.2,031.5,28.8,0001.7,0007.29,0015.21,0006.20
2023-06-01 19:05:00,SystemResetWarning,0826.2,5.00,000.00,029.9,028.5,000.0,038.2,031.5,29.0,0001.4,0007.26,0015.85,0006.16
2023-06-01 19:06:00,SystemResetWarning,0826.2,5.02,000.00,029.9,028.5,000.0,038.2,031.6,28.5,0001.2,0007.15,0015.65,0006.12
2023-06-01 19:07:00,SystemResetWarning,0826.1,5.01,000.00,029.9,028.6,000.0,038.2,031.6,28.3,0001.0,0007.06,0015.96,0006.08
2023-06-01 19:08:00,SystemResetWarning,0826.1,4.99,000.00,029.9,028.6,000.0,038.3,031.6,28.4,0000.8,0006.99,0015.96,0006.01
2023-06-01 19:09:00,SystemResetWarning,0826.1,4.99,000.00,030.0,028.6,000.0,038.3,031.6,28.1,0001.0,0006.95,0015.25,0005.96
2023-06-01 19:10:00,SystemResetWarning,0826.0,5.01,000.00,030.0,028.6,000.0,038.3,031.6,27.9,0000.8,0006.90,0014.77,0005.91
2023-06-01 19:11:00,SystemResetWarning,0826.0,5.00,000.00,030.0,028.4,000.0,038.3,031.6,27.7,0000.5,0006.85,0015.11,0005.86
2023-06-01 19:12:00,SystemResetWarning,0826.0,4.98,000.00,029.9,027.0,000.0,038.2,031.4,27.8,0000.5,0006.76,0014.89,0005.80
2023-06-01 19:13:00,SystemResetWarning,0826.0,5.00,000.00,029.9,026.1,000.0,038.1,031.3,28.3,0000.6,0006.69,0014.75,0005.75
2023-06-01 19:14:00,SystemResetWarning,0825.9,5.01,000.00,029.8,026.1,000.0,038.1,031.2,29.3,0000.7,0006.61,0014.21,0005.68
2023-06-01 19:15:00,SystemResetWarning,0825.9,4.99,000.00,029.8,026.4,000.0,038.1,031.2,29.5,0000.6,0006.64,0014.40,0005.69
2023-06-01 19:16:00,SystemResetWarning,0825.9,4.99,000.00,029.7,026.7,000.0,038.1,031.2,30.0,0000.9,0006.72,0014.10,0005.72
2023-06-01 19:17:00,SystemResetWarning,0825.9,5.00,000.00,029.7,027.0,000.0,038.1,031.2,29.8,0000.6,0006.83,0013.99,0005.78
2023-06-01 19:18:00,SystemResetWarning,0825.9,5.01,000.00,029.7,027.3,000.0,038.1,031.3,29.5,0000.7,0006.94,0013.24,0005.86
2023-06-01 19:19:00,SystemResetWarning,0825.9,5.00,000.00,029.7,027.5,000.0,038.1,031.3,30.4,0001.1,0007.00,0013.22,0005.94
2023-06-01 19:20:00,SystemResetWarning,0825.9,4.99,000.00,029.7,027.7,000.0,038.1,031.3,30.8,0001.4,0007.11,0013.39,0006.06
2023-06-01 19:21:00,SystemResetWarning,0826.0,4.99,000.00,029.7,027.9,000.0,038.1,031.4,30.8,0001.9,0007.24,0013.47,0006.17
2023-06-01 19:22:00,SystemResetWarning,0826.0,5.00,000.00,029.8,028.0,000.0,038.1,031.4,30.5,0002.2,0007.32,0013.03,0006.28
2023-06-01 19:23:00,SystemResetWarning,0826.0,5.00,000.00,029.8,028.1,000.0,038.1,031.4,30.9,0002.7,0007.43,0012.71,0006.38
2023-06-01 19:24:00,SystemResetWarning,0826.0,4.99,000.00,029.8,028.2,000.0,038.1,031.4,31.4,0003.0,0007.71,0013.05,0006.59
2023-06-01 19:25:00,SystemResetWarning,0826.0,5.00,000.00,029.8,028.3,000.0,038.1,031.5,31.3,0002.6,0007.96,0013.36,0006.83
2023-06-01 19:26:00,SystemResetWarning,0826.0,5.00,000.00,029.8,028.3,000.0,038.2,031.5,31.3,0002.0,0008.12,0013.54,0007.00
2023-06-01 19:27:00,SystemResetWarning,0826.0,5.01,000.00,029.9,028.4,000.0,038.2,031.5,30.8,0001.8,0008.32,0013.95,0007.17
2023-06-01 19:28:00,SystemResetWarning,0826.0,5.01,000.00,029.9,028.4,000.0,038.2,031.5,31.1,0001.9,0008.48,0014.17,0007.33
2023-06-01 19:29:00,SystemResetWarning,0826.0,5.00,000.00,029.9,028.5,000.0,038.2,031.5,30.8,0002.1,0008.61,0014.28,0007.46
2023-06-01 19:30:00,SystemResetWarning,0826.0,5.00,000.00,029.9,028.5,000.0,038.2,031.6,31.5,0002.0,0008.82,0014.47,0007.60
2023-06-01 19:31:00,SystemResetWarning,0826.0,5.00,000.00,029.9,028.5,000.0,038.2,031.6,31.3,0001.7,0008.90,0014.02,0007.67
2023-06-01 19:32:00,SystemResetWarning,0826.0,5.00,000.00,030.0,028.2,000.0,038.2,031.6,30.9,0001.4,0008.98,0014.53,0007.74
2023-06-01 19:33:00,SystemResetWarning,0826.0,4.99,000.00,029.9,026.6,000.0,038.1,031.3,31.0,0001.2,0009.07,0014.96,0007.79
2023-06-01 19:34:00,SystemResetWarning,0826.0,5.01,000.00,029.9,026.0,000.0,038.1,031.2,30.8,0000.2,0009.14,0015.09,0007.87
2023-06-01 19:35:00,SystemResetWarning,0826.0,5.01,000.00,029.8,026.1,000.0,038.0,031.1,30.3,-000.4,0009.14,0015.09,0007.90
2023-06-01 19:36:00,SystemResetWarning,0826.0,5.00,000.00,029.7,026.3,000.0,038.0,031.1,30.7,-000.4,0009.07,0014.84,0007.83
2023-06-01 19:37:00,SystemResetWarning,0826.0,4.99,000.00,029.7,026.7,000.0,038.1,031.2,30.9,-000.3,0009.04,0014.72,0007.75
2023-06-01 19:38:00,SystemResetWarning,0826.0,5.00,000.00,029.7,027.0,000.0,038.1,031.2,30.6,-000.2,0008.91,0014.78,0007.66
2023-06-01 19:39:00,SystemResetWarning,0826.0,5.00,000.00,029.7,027.3,000.0,038.1,031.2,30.2,-000.3,0008.84,0014.90,0007.60
2023-06-01 19:40:00,SystemResetWarning,0826.0,5.00,000.00,029.7,027.5,000.0,038.1,031.3,30.2,-000.1,0008.73,0014.87,0007.51
2023-06-01 19:41:00,SystemResetWarning,0826.0,5.00,000.00,029.7,027.7,000.0,038.0,031.3,29.3,-000.4,0008.46,0014.49,0007.31
2023-06-01 19:42:00,SystemResetWarning,0825.9,4.99,000.00,029.7,027.8,000.0,038.0,031.3,28.5,-000.2,0008.23,0014.58,0007.12
2023-06-01 19:43:00,SystemResetWarning,0826.0,4.99,000.00,029.7,027.9,000.0,038.0,031.3,28.6,0000.3,0008.05,0014.24,0006.95
2023-06-01 19:44:00,SystemResetWarning,0825.9,5.00,000.00,029.7,028.0,000.0,038.0,031.3,28.6,0000.5,0007.82,0014.04,0006.76
2023-06-01 19:45:00,SystemResetWarning,0825.9,5.00,000.00,029.7,028.1,000.0,038.1,031.3,28.5,0000.5,0007.62,0013.82,0006.56
2023-06-01 19:46:00,SystemResetWarning,0825.9,5.00,000.00,029.7,028.2,000.0,038.1,031.4,28.7,0000.8,0007.37,0013.57,0006.32
2023-06-01 19:47:00,SystemResetWarning,0825.9,5.00,000.00,029.7,028.2,000.0,038.1,031.4,28.4,0001.1,0007.16,0013.42,0006.12
2023-06-01 19:48:00,SystemResetWarning,0825.9,5.00,000.00,029.8,028.3,000.0,038.1,031.4,28.2,0001.5,0006.94,0013.09,0005.96
2023-06-01 19:49:00,SystemResetWarning,0825.9,5.00,000.00,029.8,028.4,000.0,038.1,031.5,27.8,0001.6,0006.76,0012.59,0005.80
2023-06-01 19:50:00,SystemResetWarning,0825.9,4.99,000.00,029.8,028.4,000.0,038.1,031.5,28.2,0001.6,0006.57,0012.03,0005.65
2023-06-01 19:51:00,SystemResetWarning,0825.9,4.99,000.00,029.8,028.5,000.0,038.1,031.5,27.5,0001.2,0006.42,0011.73,0005.49
2023-06-01 19:52:00,SystemResetWarning,0825.9,5.00,000.00,029.8,027.7,000.0,038.1,031.4,27.5,0001.6,0006.37,0012.59,0005.41
2023-06-01 19:53:00,SystemResetWarning,0825.9,5.00,000.00,029.8,026.3,000.0,038.0,031.2,28.0,0001.3,0006.39,0012.49,0005.38
2023-06-01 19:54:00,SystemResetWarning,0825.9,5.01,000.00,029.7,025.9,000.0,038.0,031.1,28.2,0000.7,0006.36,0012.69,0005.33
2023-06-01 19:55:00,SystemResetWarning,0825.9,5.01,000.00,029.6,026.1,000.0,037.9,031.0,28.3,0000.6,0006.37,0012.53,0005.30
2023-06-01 19:56:00,SystemResetWarning,0825.9,4.99,000.00,029.6,026.4,000.0,037.9,031.0,27.2,0001.2,0006.32,0012.49,0005.26
2023-06-01 19:57:00,SystemResetWarning,0826.0,5.00,000.00,029.6,026.7,000.0,037.9,031.1,27.5,0001.5,0006.32,0012.50,0005.22
2023-06-01 19:58:00,SystemResetWarning,0825.9,5.00,000.00,029.5,026.9,000.0,037.9,031.1,26.5,0001.5,0006.26,0012.81,0005.17
2023-06-01 19:59:00,SystemResetWarning,0825.9,5.01,000.00,029.5,027.2,000.0,037.9,031.1,27.4,0001.1,0006.21,0013.52,0005.11
